Location: Wellington
(41.3000°S, 174.7830°E)
Time: 16:49:00
(UTC+12:00)

Helios 1B rocket - Pass Details

Date: 24 January 2019
Orbit: 577 x 583 km, 98.2° (Epoch: 20 April)

Event Time Altitude Azimuth Distance (km) Brightness Sun altitude
Exits shadow 23:02:34 54° 20° (NNE) 719 2.5 -20.2°
Maximum altitude 23:03:30 86° 102° (ESE) 595 2.3 -20.3°
Drops below altitude 10° 23:07:41 10° 192° (SSW) 1,929 6.0 -20.8°
Sets 23:09:52 0° 192° (SSW) 2,839 7.1 -21.0°
